Location: Nairn
(57.5833°N, 3.8667°W)
Time: 01:42:44
(UTC+00:00)

Transit 2A - Pass Details

Date: 27 November 2020
Orbit: 598 x 960 km, 66.7° (Epoch: 20 January)

Event Time Altitude Azimuth Distance (km) Brightness Sun altitude
Rises 18:15:28 0° 203° (SSW) 3,623 9.9 -19.5°
Reaches altitude 10° 18:18:07 10° 199° (SSW) 2,662 9.1 -19.8°
Maximum altitude 18:24:08 52° 125° (SE) 1,123 6.5 -20.6°
Enters shadow 18:25:49 40° 79° (ENE) 1,296 6.6 -20.8°
